Theta_e
347 356 367 367 366 365 364 365 363 363 365 365 363 362 363 363 363 362 360 358 358 361 363 364 363 364 365 364 364 364 364 364 365 364 360 359 361 361 363 363 362 355 362
352 357 367 367 367 365 365 367 366 366 366 363 362 362 362 362 364 362 362 357 359 362 362 362 363 363 364 364 364 364 363 364 367 362 361 362 359 360 363 365 360 358 362
353 358 361 367 368 367 367 367 366 365 364 363 363 363 363 362 364 365 362 363 364 363 364 362 363 364 364 364 363 362 361 363 366 363 364 356 357 362 362 361 359 362 361
354 356 359 367 368 367 368 366 366 363 363 362 362 363 363 362 363 363 362 362 363 363 362 361 363 363 364 363 363 362 361 363 364 363 349 350 352 361 360 360 362 361 358
352 356 361 368 368 367 367 366 364 361 362 361 362 363 363 362 363 363 364 362 363 364 363 362 363 363 364 363 363 361 360 359 360 359 354 352 352 359 362 362 360 361 364
352 356 365 368 367 366 365 363 362 362 362 362 363 363 364 363 364 364 364 364 365 362 362 363 364 363 363 363 360 359 359 358 358 357 359 359 356 361 362 365 363 362 362
354 356 360 368 367 366 364 362 364 365 361 362 363 363 363 364 363 365 363 362 363 361 361 363 364 363 363 363 359 358 362 358 358 353 355 357 359 362 361 360 362 363 362
354 353 358 366 367 366 363 364 363 362 362 361 363 364 364 364 364 364 364 364 364 363 362 364 363 362 363 361 358 359 360 362 357 356 356 357 362 363 357 361 362 362 363
353 355 358 359 363 365 364 364 363 363 362 363 364 363 365 364 363 364 364 363 365 364 363 363 361 362 362 360 359 359 360 363 352 355 355 357 363 365 362 362 364 363 362
354 352 356 357 359 361 359 363 364 364 362 361 363 364 363 364 362 363 365 365 365 364 362 362 362 362 364 358 356 357 359 363 358 356 355 358 364 364 363 363 363 363 361
349 351 353 354 359 363 363 361 363 363 363 364 362 363 364 361 362 359 363 363 365 363 363 362 362 362 362 359 356 355 354 354 353 356 356 363 364 364 363 362 362 364 365
345 349 352 354 353 356 356 363 364 360 360 361 361 361 367 360 356 364 362 364 365 364 365 363 362 361 357 354 356 357 359 356 352 355 356 363 364 363 364 362 364 363 364
346 349 353 355 358 355 359 362 360 360 360 361 355 363 358 360 354 357 360 360 361 363 359 358 358 357 347 346 354 354 354 354 353 356 358 364 364 362 363 362 362 362 362
345 350 349 355 356 358 362 359 359 356 353 356 360 358 357 354 356 357 356 357 359 358 358 360 358 354 349 349 356 356 355 351 351 355 358 363 363 361 362 361 360 362 362
343 347 349 354 363 361 359 361 359 357 355 352 357 363 365 361 356 355 358 358 354 353 357 351 352 357 352 355 355 354 352 354 352 354 355 360 363 364 361 362 358 362 362
346 346 350 353 360 360 363 365 355 355 353 352 355 361 366 366 364 356 353 352 357 352 357 355 353 354 351 350 349 351 350 348 350 350 353 353 360 361 363 361 363 362 362
347 349 351 354 354 362 367 369 365 357 353 354 357 365 366 368 367 367 363 352 358 359 355 357 355 350 346 344 345 345 347 347 350 346 352 351 355 360 363 363 364 364 363
348 351 355 351 353 355 356 363 362 364 354 355 356 362 367 366 370 368 365 363 363 355 354 356 348 347 346 341 339 343 342 346 350 350 351 353 354 354 359 362 362 364 363
351 356 361 359 356 356 367 359 361 363 363 356 361 357 366 362 364 364 364 363 367 362 358 352 349 345 342 341 344 342 342 344 345 349 348 349 354 354 354 358 360 363 361
355 360 363 360 370 359 364 366 358 360 360 362 359 363 367 363 363 361 362 361 357 360 358 353 350 348 342 339 343 343 343 342 344 345 346 349 349 351 352 351 355 358 364
356 359 360 363 370 363 361 354 355 351 357 358 362 367 368 368 367 368 361 357 363 352 352 352 349 350 348 346 347 344 345 346 346 350 348 346 347 350 349 350 351 353 358
354 359 362 363 369 367 362 359 358 357 355 356 360 363 363 364 368 365 364 361 362 359 359 356 353 350 351 351 342 343 335 342 346 349 348 348 347 349 347 349 348 343 347
354 359 363 365 366 366 366 367 368 367 365 358 359 359 360 362 365 365 367 363 360 361 357 355 354 351 350 352 351 345 336 332 339 345 347 347 346 346 343 345 351 349 347
355 360 364 367 367 366 368 363 365 354 351 353 356 359 358 362 364 365 368 366 365 366 361 357 357 355 353 350 351 350 351 349 336 335 347 346 346 345 343 343 347 349 352
355 359 364 368 368 364 366 369 362 361 358 356 358 362 363 363 363 364 367 368 366 362 363 360 359 354 352 357 352 353 350 349 347 342 339 342 346 346 345 344 345 349 352
355 358 361 366 368 368 366 366 369 361 363 355 357 361 359 361 362 364 365 366 366 365 364 365 362 363 360 356 353 354 349 346 343 343 340 339 341 343 345 346 345 347 349
Wind_Speed
17 16 15 12 12 11 9 11 10 11 12 11 12 11 11 12 12 13 13 13 11 12 14 13 14 15 15 17 16 16 17 18 18 18 18 17 14 13 12 15 18 15 16
21 17 16 14 13 13 13 14 14 13 12 11 11 10 11 11 11 13 12 13 12 11 13 15 15 14 15 16 15 15 15 15 16 17 17 16 13 11 10 18 18 14 16
21 18 17 15 15 14 14 14 14 13 12 11 10 9 9 10 11 12 12 12 13 13 14 14 15 14 14 14 14 13 13 12 15 18 17 11 11 16 17 19 16 14 15
21 18 17 16 16 14 14 13 13 12 11 11 9 9 10 10 10 10 12 12 12 13 12 13 14 14 14 13 12 10 12 11 11 12 8 10 12 15 17 16 15 15 14
20 19 18 17 15 14 13 13 12 11 9 9 9 9 9 10 11 11 12 12 12 13 12 13 13 12 13 11 9 9 8 7 8 8 11 9 8 12 15 14 13 13 15
21 20 17 16 15 13 12 12 11 10 9 9 9 8 11 10 12 13 13 13 15 14 12 12 12 13 11 8 6 6 6 5 9 10 8 11 10 12 11 13 15 15 14
23 20 17 15 14 13 12 11 9 9 10 10 9 9 9 11 12 14 14 13 13 14 13 12 13 12 11 8 3 4 19 11 4 10 10 11 8 12 14 13 13 13 13
21 19 16 15 13 12 12 10 10 10 11 10 8 10 9 12 12 13 13 13 13 13 13 14 13 12 10 8 3 4 7 4 7 10 10 10 9 13 13 13 12 12 12
22 18 15 14 12 12 11 10 10 10 11 10 10 10 10 12 12 13 12 12 13 13 11 12 9 9 9 6 3 4 5 10 15 5 11 7 11 12 13 11 10 12 12
20 17 14 13 12 10 10 10 10 9 10 9 9 10 11 12 11 11 12 11 12 12 12 11 9 10 10 5 1 4 8 9 8 8 7 8 11 13 12 12 10 12 11
17 18 17 15 12 10 11 9 10 8 8 10 9 10 9 8 6 8 7 11 13 12 12 11 10 10 10 6 1 5 5 3 7 3 6 13 12 13 11 11 12 10 10
18 18 17 16 12 13 11 11 9 8 7 7 7 7 3 9 9 3 8 11 14 13 12 10 10 10 7 4 1 3 4 6 4 5 6 11 12 13 13 10 10 10 10
18 15 16 16 14 13 7 8 6 6 6 5 7 7 6 8 10 6 5 5 6 10 6 7 6 5 8 5 4 3 4 6 5 1 9 13 12 12 12 12 11 9 9
14 19 18 18 13 14 10 8 8 6 5 6 6 6 6 3 9 8 7 7 4 6 5 2 3 9 10 10 3 4 4 1 4 3 6 13 13 11 11 11 11 10 10
14 13 18 16 10 11 8 7 6 4 6 6 7 6 2 2 4 5 5 6 6 5 5 7 5 2 9 6 4 5 4 5 7 5 2 6 11 11 11 10 11 10 11
15 13 12 15 9 8 7 8 5 6 6 4 4 7 5 2 1 5 2 4 6 3 7 7 9 5 4 6 5 5 3 4 7 6 6 6 8 11 11 11 11 10 11
14 15 13 15 12 6 5 3 4 4 10 7 3 10 8 4 2 3 2 3 4 4 6 8 7 6 4 4 4 3 3 5 3 4 6 4 4 10 11 11 10 10 10
14 14 11 13 16 11 8 5 4 3 4 7 7 8 9 6 2 3 1 2 5 4 7 8 5 5 4 2 1 1 2 4 5 2 1 2 3 5 8 10 10 11 11
12 13 9 10 13 14 7 8 6 5 1 4 4 7 10 9 6 4 3 2 4 3 7 7 5 5 4 1 2 2 2 4 4 3 5 3 3 4 3 10 11 11 13
12 13 11 9 5 13 8 5 6 4 4 3 4 4 8 9 10 7 4 4 4 3 5 5 5 3 4 6 4 4 3 5 4 5 5 5 3 6 4 5 6 7 11
13 15 13 11 8 10 8 7 6 6 4 4 3 10 9 6 8 6 5 5 5 7 7 10 8 8 5 5 3 4 5 7 7 6 5 5 6 5 3 8 4 3 7
16 15 14 12 10 7 7 8 6 6 5 5 4 7 9 6 5 6 6 6 7 5 8 8 8 7 4 8 3 2 2 2 6 6 3 5 7 4 5 4 7 6 7
18 16 15 14 12 10 9 5 4 4 3 4 5 7 7 9 7 7 6 6 7 5 6 7 9 8 7 5 7 3 3 3 2 2 6 5 6 4 5 7 6 9 15
17 17 16 15 14 12 10 9 7 6 6 4 5 5 9 11 10 9 7 8 6 5 6 7 7 7 6 7 6 8 8 3 4 3 3 6 6 7 7 6 7 5 5
18 18 17 16 15 14 12 8 9 8 6 6 5 8 8 11 12 11 9 9 7 6 8 7 6 6 10 3 4 3 7 6 6 3 2 4 5 4 5 7 6 5 6
19 19 19 19 16 16 15 13 9 11 8 6 8 6 8 8 10 11 11 10 9 8 9 4 6 6 5 5 6 5 4 3 3 4 2 3 6 4 7 7 8 7 7
Wind_Direction
135 133 133 135 128 125 116 115 121 116 108 104 100 89 85 85 89 92 97 100 92 85 85 83 91 92 92 88 86 86 88 90 88 91 94 96 97 105 112 117 98 100 96
128 134 130 129 126 121 111 106 110 119 109 107 103 98 93 91 97 104 101 104 104 99 95 93 92 96 96 94 94 95 99 103 107 104 101 94 92 88 103 84 95 95 99
129 131 131 130 125 121 116 111 111 113 112 107 107 107 99 99 95 108 111 105 101 96 94 95 94 98 98 98 99 103 108 115 127 130 125 97 94 99 95 99 107 98 94
129 135 133 128 126 126 121 113 110 111 110 106 105 100 103 101 103 113 117 111 103 100 101 102 100 100 102 103 106 116 130 135 147 158 104 103 96 99 102 105 106 103 103
140 131 128 129 127 126 120 116 115 112 108 107 111 107 102 102 106 121 113 113 116 107 110 106 103 104 108 105 118 130 134 145 130 175 99 109 104 108 106 110 113 119 98
139 122 131 131 129 128 124 122 123 122 120 107 105 107 103 97 104 120 118 122 109 108 107 107 101 104 103 106 118 124 79 57 92 82 87 100 96 113 129 104 98 100 102
114 129 133 132 131 131 128 125 123 115 112 111 106 103 102 105 110 121 123 121 121 114 118 109 105 107 104 109 93 65 72 320 228 118 103 95 104 110 107 111 103 109 105
128 132 134 134 136 135 131 128 117 115 115 116 116 109 114 106 112 119 122 120 122 121 125 120 108 109 113 106 77 17 92 130 33 89 93 99 102 117 118 118 116 115 111
129 124 134 143 141 139 137 137 126 123 127 128 120 120 112 118 123 123 124 128 123 126 127 116 108 108 108 107 86 340 342 57 88 291 112 110 118 118 122 128 126 119 115
127 140 143 143 153 153 150 143 136 135 129 134 137 130 128 124 127 133 130 132 126 130 128 121 111 121 116 115 143 275 343 337 120 140 108 118 122 122 126 131 130 123 125
135 145 151 151 161 163 137 148 138 141 143 152 156 157 150 123 146 138 119 139 134 140 131 135 130 128 122 127 98 345 316 266 75 111 108 122 128 129 134 141 132 133 124
148 155 149 148 159 169 161 148 159 169 172 189 181 163 197 90 69 50 143 147 139 146 141 153 145 135 79 2 59 320 330 2 139 96 117 130 128 140 140 139 136 142 138
159 144 139 142 166 169 131 161 168 180 188 165 165 168 178 134 144 208 154 168 155 167 163 165 154 118 71 335 300 9 338 24 31 113 139 141 134 147 148 148 146 145 145
156 143 166 154 176 147 155 177 173 170 194 174 181 131 160 132 173 176 175 189 150 174 160 144 123 135 162 189 199 68 13 320 45 318 144 139 135 152 157 154 156 150 158
164 175 151 153 156 158 152 169 184 175 193 158 154 139 190 125 148 156 175 179 146 224 150 108 42 158 144 145 88 79 34 12 43 29 2 148 147 155 163 162 163 170 165
165 174 153 139 142 177 167 166 178 211 125 92 184 148 130 257 179 165 199 169 147 164 132 135 166 104 94 99 78 76 44 347 98 52 27 320 188 169 165 176 175 177 178
164 163 159 144 158 215 155 163 202 170 149 165 124 144 157 124 291 66 358 123 158 162 132 116 114 114 109 94 75 18 356 338 4 101 139 297 234 200 177 174 182 180 189
165 158 166 168 163 194 176 160 253 248 144 147 149 156 138 135 151 86 302 257 145 153 146 125 136 111 99 101 135 286 317 330 315 61 302 223 278 233 192 191 192 188 193
166 151 155 170 167 165 176 159 232 227 262 149 159 151 148 150 168 181 207 266 205 134 128 143 137 135 118 48 227 244 260 268 279 293 275 274 322 283 236 197 208 193 191
166 151 155 162 181 159 161 168 188 247 168 255 160 150 153 158 176 175 204 224 208 114 134 118 110 175 160 184 215 224 231 252 256 256 263 275 285 285 115 274 202 209 199
171 156 163 168 185 161 161 179 193 211 189 191 189 139 160 179 175 182 184 166 228 143 164 147 164 187 177 177 173 221 232 223 229 244 219 229 253 270 203 209 178 266 193
173 164 165 177 172 180 181 182 201 185 195 190 198 151 155 171 190 187 207 182 215 199 166 176 183 181 181 179 164 181 233 176 219 234 202 219 226 244 252 205 194 245 254
175 170 169 176 174 184 187 187 184 202 209 173 184 160 167 169 200 204 196 224 202 227 190 184 200 188 180 174 201 189 212 184 173 164 216 207 208 202 238 252 241 202 228
179 171 172 176 173 195 207 184 196 204 188 210 185 184 178 181 192 201 206 216 211 239 233 194 209 202 178 175 187 228 249 184 193 145 199 215 210 207 218 234 260 275 205
183 174 171 176 176 187 202 215 191 194 210 194 200 201 168 184 194 206 201 208 220 226 248 216 227 186 220 169 203 196 226 234 235 211 170 187 201 201 216 228 234 260 263
180 176 175 175 181 186 191 213 219 192 227 201 204 192 180 175 192 206 212 199 207 217 239 242 244 199 196 218 235 222 212 203 253 201 200 182 192 184 213 225 223 236 248